sat.trackr.live / text

‹ back to catalog

STARLINK-33922

NORAD 63698 · 2025-087B

PAYLOAD ACTIVE UNKNOWN

§ Identity

Operator
Country
US
Launch date
2025-04-28
Launch site
AFWTR
Launch vehicle
Mass (kg)
RCS (m²)

Purposes: comms

External: N2YO · Heavens-Above · Gunter

§ Orbital elements

Epoch: 2026-09-20T18:27:21.822048Z

Period
93.85 min
Inclination
53.1596°
Eccentricity
0.0000973
Mean motion
15.34397183 rev/d
Perigee alt
462.0 km
Apogee alt
463.4 km
Semi-major
6,840.8 km
B*
6.4170e-4
RAAN
32.2653°
Arg perigee
102.6429°
Mean anomaly
257.4683°
Rev number
7,907

§ Raw data

STARLINK-339221 63698U 25087B   26263.76900257  .00021364  00000+0  64170-3 0  99952 63698  53.1596  32.2653 0000973 102.6429 257.4683 15.34397183 79079

JSON: /api/v1/satellites/63698 · /tle

For live sub-satellite position, see the globe view (requires WebGL).

§ Visibility from observer

Set your observer location to see the next 7 days of passes ≥ 10°. The values pass through the URL so the page stays shareable.

No JS? Fill the form by hand. The geolocation button needs JavaScript.